Skip Page Navigation
NASA JPL Caltech
NASA Logo - Jet Propulsion Laboratory + View the NASA Portal
+ Near-Earth Object (NEO) Program
Search JPL
JPL Home Earth Solar System Stars & Galaxies Technology
JPL Solar System Dynamics
BODIES ORBITS EPHEMERIDES TOOLS PHYSICAL DATA DISCOVERY FAQ SITE MAP
JPL Small-Body Database Browser
Search: [ help ]  
48588 Raschroder (1994 RP11)
Classification: Main-belt Asteroid          SPK-ID: 2048588
Ephemeris | Orbit Diagram | Orbital Elements | Physical Parameters | Discovery Circumstances | Close-Approach Data ]

[ show orbit diagram ]
Orbital Elements at Epoch 2456800.5 (2014-May-23.0) TDB
Reference: JPL 6 (heliocentric ecliptic J2000)
 Element Value Uncertainty (1-sigma)   Units 
e .1462774884216415 9.9109e-08  
a 2.388685618313942 3.0053e-08 AU
q 2.039274685438083 2.2475e-07 AU
i 5.728480242425923 6.3953e-06 deg
node 251.5541826210646 8.0675e-05 deg
peri 109.3235037117105 8.4756e-05 deg
M 115.6644730746045 2.9884e-05 deg
tp 2456367.254159364520
(2013-Mar-15.75415936)
0.00010748 JED
period 1348.456431631965
3.69
2.5448e-05
6.967e-08
d
yr
n .2669719180799273 5.0383e-09 deg/d
Q 2.738096551189801 3.4449e-08 AU
  Orbit Determination Parameters
   # obs. used (total)      456  
   data-arc span      8112 days (22.21 yr)  
   first obs. used      1991-12-13  
   last obs. used      2014-02-27  
   planetary ephem.      DE431  
   SB-pert. ephem.      SB431-BIG16  
   condition code      0  
   fit RMS      .58762  
   data source      ORB  
   producer      Otto Matic  
   solution date      2014-Jun-10 07:21:14  

Additional Information
 Earth MOID = 1.04381 AU 
 T_jup = 3.512 
[ show covariance matrix ]

Ephemeris | Orbit Diagram | Orbital Elements | Physical Parameters | Discovery Circumstances | Close-Approach Data ]

Physical Parameter Table
Parameter Symbol Value Units Sigma Reference Notes
absolute magnitude H 15.3 mag n/a MPO279999  

48588 Raschröder           Discovered 1994 Sept. 2 by F. Börngen at Tautenburg.
German Rudolf Alexander Schröder (1878-1962) was an architect, but he became known as a poet, essayist and translator. The complete edition of his work contains eight volumes, including numerous collections of verse. He revived the Protestant chorale and is cofounder of the "Insel-Verlag".
NOTE: some special characters may not display properly (any characters within {} are an attempt to place the proper accent above a character)
Reference: 20030501/MPCPages.arcLast Updated: 2003-10-02

[ show close-approach data ]
Alternate Designations
 1994 RP11 = 1998 WO21 
Ephemeris | Orbit Diagram | Orbital Elements | Physical Parameters | Discovery Circumstances | Close-Approach Data ]
ABOUT SSD CREDITS/AWARDS PRIVACY/COPYRIGHT GLOSSARY LINKS
FirstGov 2014-Jul-23 22:34 UT
(server date/time)  
NASA Home Page
Site Manager:   Donald K. Yeomans
Webmaster  Alan B. Chamberlin